Weather History for KABE - September, 2012

Change the Weather History Date:

Wednesday, September 26, 2012

  Actual Average Record
Temperature  
Mean Temperature 68 °F 60 °F  
Max Temperature 75 °F 71 °F 90 °F (1970)
Min Temperature 60 °F 49 °F 35 °F (1967)
Degree Days  
Heating Degree Days 0 6  
Month to date heating degree days 62 76  
Since 1 July heating degree days 63 87  
Cooling Degree Days 3 1  
Month to date cooling degree days 90 68  
Year to date cooling degree days 1041 747  
Growing Degree Days 18 (Base 50)    
Moisture  
Dew Point 59 °F    
Average Humidity 79    
Maximum Humidity 93    
Minimum Humidity 64    
Precipitation  
Precipitation T in 0.17 in 2.00 in (1985)
Month to date precipitation 4.09 3.91  
Year to date precipitation 29.91 33.68  
Snow  
Snow 0.00 in 0.00 in 0.00 in (2002)
Month to date snowfall 0.0 0.0  
Since 1 July snowfall 0.0 0.0  
Since 1 September snowfall 0.0 0.0  
Snow Depth 0.00 in    
Sea Level Pressure  
Sea Level Pressure 30.07 in    
Wind  
Wind Speed 6 mph (SW)    
Max Wind Speed 15 mph    
Max Gust Speed 22 mph    
Visibility 10 miles    
Events Rain    
T = Trace of Precipitation, MM = Missing Value Source: NWS Daily Summary

Daily Weather History Graph

Daily Weather History Graph

Search for Another Location

Airport or City:

Trip Planner

Search our weather history database for the weather conditions in past years. The results will help you decide how hot, cold, wet, or windy it might be!

Date:

Astronomy

Sep. 26, 2012 Rise Set
Actual Time 6:53 AM EDT 6:51 PM EDT
Civil Twilight 6:26 AM EDT 7:18 PM EDT
Nautical Twilight 5:54 AM EDT 7:50 PM EDT
Astronomical Twilight 5:22 AM EDT 8:22 PM EDT
Moon 4:50 PM EDT (9/26) 3:16 AM EDT (9/26)
Length of Visible Light 12h 52m
Length of Day
11h 57m
Waxing Gibbous, 88% of the Moon is Illuminated
Sep 26
Waxing Gibbous
Sep 29
Full
Oct 8
Last Quarter
Oct 15
New
Oct 21
First Quarter

Hourly Weather History & Observations

Time (EDT) Temp. Dew Point Humidity Pressure Visibility Wind Dir Wind Speed Gust Speed Precip Events Conditions
12:51 AM 64.0 °F 53.1 °F 67% 30.11 in 10.0 mi SSE 5.8 mph - 0.00 in   Overcast
1:51 AM 63.0 °F 53.1 °F 70% 30.09 in 10.0 mi South 8.1 mph - 0.00 in   Overcast
2:51 AM 63.0 °F 54.0 °F 72% 30.07 in 10.0 mi South 6.9 mph - N/A   Mostly Cloudy
3:51 AM 61.0 °F 55.0 °F 81% 30.06 in 10.0 mi Calm Calm - N/A   Overcast
4:51 AM 63.0 °F 55.0 °F 75% 30.06 in 10.0 mi SSW 9.2 mph - N/A   Overcast
5:51 AM 62.1 °F 55.0 °F 78% 30.07 in 10.0 mi SW 6.9 mph - N/A   Overcast
6:51 AM 61.0 °F 55.9 °F 83% 30.08 in 10.0 mi SW 3.5 mph - N/A   Overcast
7:51 AM 62.1 °F 57.0 °F 84% 30.08 in 10.0 mi WSW 3.5 mph - N/A   Overcast
8:51 AM 63.0 °F 57.0 °F 81% 30.09 in 10.0 mi SW 6.9 mph - N/A   Mostly Cloudy
9:51 AM 64.0 °F 57.9 °F 80% 30.09 in 10.0 mi SSW 5.8 mph - 0.00 in   Mostly Cloudy
10:51 AM 66.0 °F 59.0 °F 78% 30.09 in 10.0 mi WSW 10.4 mph - 0.00 in   Partly Cloudy
11:51 AM 69.1 °F 60.1 °F 73% 30.07 in 10.0 mi WSW 8.1 mph - N/A   Clear
12:51 PM 71.1 °F 61.0 °F 70% 30.08 in 10.0 mi SW 6.9 mph - N/A   Overcast
1:51 PM 72.0 °F 61.0 °F 68% 30.05 in 10.0 mi WSW 9.2 mph 17.3 mph N/A   Overcast
2:51 PM 73.9 °F 61.0 °F 64% 30.03 in 10.0 mi SW 10.4 mph - 0.00 in   Mostly Cloudy
3:51 PM 73.0 °F 60.1 °F 64% 30.03 in 10.0 mi West 12.7 mph - N/A   Overcast
4:51 PM 72.0 °F 61.0 °F 68% 30.04 in 10.0 mi West 5.8 mph - N/A   Overcast
5:51 PM 69.1 °F 62.1 °F 78% 30.05 in 10.0 mi West 4.6 mph - 0.00 in Rain Light Rain
6:51 PM 66.9 °F 62.1 °F 84% 30.06 in 10.0 mi WSW 3.5 mph - 0.00 in Rain Light Rain
7:51 PM 68.0 °F 62.1 °F 81% 30.06 in 10.0 mi Calm Calm - 0.00 in   Overcast
8:51 PM 66.9 °F 62.1 °F 84% 30.09 in 10.0 mi West 4.6 mph - 0.00 in   Mostly Cloudy
9:51 PM 64.0 °F 62.1 °F 93% 30.09 in 10.0 mi Calm Calm - N/A   Partly Cloudy
10:51 PM 66.0 °F 62.1 °F 87% 30.08 in 10.0 mi West 4.6 mph - N/A   Overcast
11:51 PM 66.0 °F 61.0 °F 84% 30.07 in 10.0 mi SSW 4.6 mph - N/A   Clear